Miscellaneous Local Product
Issued by NWS North Platte, NE

Home | Current Version | Previous Version | Text Only | Print | Product List | Glossary On
Versions: 1 2 3 4 5 6 7 8 9 10 11 12 13 14 15 16 17 18 19 20 21 22 23 24 25 26 27 28 29 30 31 32 33 34 35 36 37 38 39 40 41 42 43 44 45 46 47 48 49 50
000
AXUS43 KLBF 292110
MISLBF


WESTERN AND NORTH CENTRAL NEBRASKA HOURLY WEATHER ROUNDUP
NATIONAL WEATHER SERVICE NORTH PLATTE NE
400 PM CDT MON MAY 29 2017

NOTE: "FAIR" INDICATES FEW OR NO CLOUDS BELOW 12,000 FEET WITH NO
SIGNIFICANT WEATHER AND/OR OBSTRUCTIONS TO VISIBILITY.

NOTE: STATIONS NOT REPORTING VARIABLES SUCH AS SKY/WEATHER OR
PRESSURE ARE PROVIDED BY RAWS AND APRS NETWORKS AND ARE NOT UNDER
NATIONAL WEATHER SERVICE QUALITY CONTROL.

...OBSERVATIONS IN AND NEAR THE EASTERN PANHANDLE OF NEBRASKA...

CITY           SKY/WX    TMP DP  RH WIND       PRES   REMARKS
PINE RIDGE     SUNNY     68  39  34 VRB3      30.13F
GORDON         FAIR      68  38  33 N12G18    30.12F
CHADRON        SUNNY     69  42  37 VRB7      30.12F
ALLIANCE       MOSUNNY   70  36  28 NW17G31   30.12F
SIDNEY         SUNNY     70  40  33 N14G25    30.17F
CRESCENT LAKE    N/A     71  32  24 NW16G25     N/A
$$

...OBSERVATIONS IN NORTHERN NEBRASKA AND FAR SOUTHERN SOUTH DAKOTA...

CITY           SKY/WX    TMP DP  RH WIND       PRES   REMARKS
WINNER         FAIR      70  40  33 NW17G25   30.06F
VALENTINE      PTSUNNY   68  34  28 NW17      30.10F
THEDFORD       MOSUNNY   71  36  28 NW20      30.11F
AINSWORTH      PTSUNNY   66  38  34 N15G26    30.10S
O`NEILL        PTSUNNY   68  35  29 NW14G28   30.07S
ORD            MOSUNNY   68  34  28 NW17G26   30.07F
BROKEN BOW     SUNNY     73  35  25 NW20G28   30.09F
VALENTINE NWR    N/A     67  35  31 NW13G23     N/A
HALSEY           N/A     71  35  27 NW9G20      N/A
BUTTE            N/A     64  40  41 W15G24      N/A
CHAMBERS         N/A     70  40  33 N7          N/A
EWING            N/A     68  40  35 NW16G24     N/A
$$

...OBSERVATIONS IN SOUTHWEST NEBRASKA AND FAR NORTHEAST COLORADO...

CITY           SKY/WX    TMP DP  RH WIND       PRES   REMARKS
WRAY           MOCLDY    73  36  25 N10       30.15S
IMPERIAL       MOSUNNY   73  39  29 N8        30.12F
OGALLALA       MOSUNNY   75  36  24 NW20G25   30.12F
NORTH PLATTE   SUNNY     73  36  25 N15G30    30.10F
MCCOOK         MOSUNNY   76  40  27 NW15G22   30.09F
LEXINGTON      SUNNY     75  32  20 N18       30.09F
STAPLETON        N/A     71  40  32 CALM        N/A
GOTHENBURG       N/A     71  29  21 NW14        N/A
CALLAWAY         N/A     71  37  29 N9          N/A
$$

...OBSERVATIONS IN CENTRAL LINCOLN COUNTY AREA...

CITY           SKY/WX    TMP DP  RH WIND       PRES   REMARKS
N.P. AIRPORT   SUNNY     73  36  25 N15G30    30.10F
N.P. DOWNTOWN    N/A     73  36  26 NW7G15      N/A
N.P. SOUTHEAST   N/A     73  35  25 N9G20       N/A
N.P. HILLCREST   N/A     71  29  21 NW17G28     N/A
$$

...SOME OBSERVATIONS FROM AROUND THE REGION...

CITY           SKY/WX    TMP DP  RH WIND       PRES   REMARKS
DENVER         PTSUNNY   66  42  41 N9        30.21S
LIMON          CLOUDY    65  43  44 NE8       30.20F
ASPEN          CLOUDY    65  21  18 NE7       30.24F
LARAMIE        CLOUDY    57  38  48 SW18      30.28S
CASPER         MOSUNNY   67  34  29 NW9       30.21F
CHEYENNE       CLOUDY    60  39  45 MISG      30.24F
SCOTTSBLUFF    SUNNY     73  33  23 NW15G31   30.15F
GRAND ISLAND   PTSUNNY   75  37  25 W16G29    30.07F
OMAHA          MOSUNNY   75  37  25 NW21G28   29.99S
SIOUX FALLS    PTSUNNY   64  46  52 NW22G32   29.98S
PIERRE         PTSUNNY   67  35  30 NW17G26   30.03F
RAPID CITY     SUNNY     69  32  25 N21G31    30.12F
BISMARCK       CLOUDY    64  36  35 NW24G30   30.02F
KANSAS CITY    MOSUNNY   80  47  31 W15G21    30.00R
HILL CITY      CLOUDY    77  40  26 NW8       30.10F
WICHITA        MOSUNNY   84  48  28 W10       30.02F
DODGE CITY     MOSUNNY   81  42  25 N8G17     30.11S
OKLAHOMA CITY  MOSUNNY   87  43  21 SW9       30.03F
DALLAS         PTSUNNY   88  48  25 NE8       30.01F
AMARILLO       PTSUNNY   80  37  21 SE15G22   30.13F
$$




USA.gov is the U.S. government's official web portal to all federal, state and local government web resources and services.